TimeEDT,TemperatureF,Dew PointF,Humidity,Sea Level PressureIn,VisibilityMPH,Wind Direction,Wind SpeedMPH,Gust SpeedMPH,PrecipitationIn,Events,Conditions,WindDirDegrees,DateUTC
12:51 AM,63.0,55.0,75,30.01,10.0,East,3.5,-,N/A,,Clear,100,2013-09-30 04:51:00
1:51 AM,63.0,55.9,78,30.00,10.0,East,4.6,-,N/A,,Clear,100,2013-09-30 05:51:00
2:51 AM,64.0,55.9,75,30.00,10.0,Calm,Calm,-,N/A,,Clear,0,2013-09-30 06:51:00
3:51 AM,63.0,55.0,75,29.99,10.0,ENE,5.8,-,N/A,,Clear,70,2013-09-30 07:51:00
4:51 AM,64.0,55.0,73,30.00,10.0,ENE,5.8,-,N/A,,Clear,70,2013-09-30 08:51:00
5:51 AM,64.0,55.0,73,30.01,10.0,East,3.5,-,N/A,,Partly Cloudy,90,2013-09-30 09:51:00
6:51 AM,63.0,55.0,75,30.03,10.0,East,4.6,-,N/A,,Mostly Cloudy,80,2013-09-30 10:51:00
7:51 AM,63.0,55.9,78,30.04,10.0,East,6.9,-,N/A,,Clear,90,2013-09-30 11:51:00
8:51 AM,64.0,57.0,78,30.05,10.0,East,4.6,-,N/A,,Clear,90,2013-09-30 12:51:00
9:51 AM,66.0,59.0,78,30.06,10.0,East,3.5,-,N/A,,Clear,80,2013-09-30 13:51:00
10:51 AM,69.1,60.1,73,30.07,10.0,ESE,3.5,-,N/A,,Mostly Cloudy,110,2013-09-30 14:51:00
11:51 AM,71.1,62.1,73,30.06,10.0,ESE,3.5,-,N/A,,Mostly Cloudy,120,2013-09-30 15:51:00
12:51 PM,75.0,62.1,64,30.05,10.0,Variable,5.8,-,N/A,,Scattered Clouds,0,2013-09-30 16:51:00
1:51 PM,75.0,61.0,62,30.03,10.0,Variable,5.8,-,N/A,,Mostly Cloudy,0,2013-09-30 17:51:00
2:51 PM,77.0,61.0,58,30.00,10.0,ESE,5.8,-,N/A,,Mostly Cloudy,110,2013-09-30 18:51:00
3:51 PM,79.0,61.0,54,29.98,10.0,Variable,5.8,-,N/A,,Scattered Clouds,0,2013-09-30 19:51:00
4:51 PM,78.1,60.1,54,29.99,10.0,Calm,Calm,-,N/A,,Scattered Clouds,0,2013-09-30 20:51:00
5:51 PM,78.1,61.0,56,29.98,10.0,Variable,4.6,-,N/A,,Scattered Clouds,0,2013-09-30 21:51:00
6:51 PM,77.0,60.1,56,29.99,10.0,SE,6.9,-,N/A,,Clear,140,2013-09-30 22:51:00
7:51 PM,73.9,61.0,64,30.01,10.0,ESE,3.5,-,N/A,,Clear,110,2013-09-30 23:51:00
8:51 PM,71.1,62.1,73,30.02,10.0,ESE,5.8,-,N/A,,Clear,120,2013-10-01 00:51:00
9:51 PM,69.1,62.1,78,30.04,10.0,ESE,3.5,-,N/A,,Partly Cloudy,120,2013-10-01 01:51:00
10:51 PM,69.1,62.1,78,30.05,10.0,East,3.5,-,N/A,,Clear,80,2013-10-01 02:51:00
11:51 PM,66.9,61.0,81,30.05,10.0,East,4.6,-,N/A,,Clear,90,2013-10-01 03:51:00